Powrót do katalogu

METEOR 1-17 DEB

AktywnyPO
NORAD 57538·DEBRIS·🇷🇺 Russia

Wystrzelony Apr 24, 1974 z Plesetsk Cosmodrome

Loading…

Następne Przeloty (najbliższe 24 godziny)

TLE

ŚwieżeSource: Space-Track

Epoka: Sep 13, 2026, 19:40 UTC

1 57538U 74025D   26256.81991489  .00002068  00000-0  85901-3 0  9998
2 57538  81.1944 192.3730 0021538 352.6885   7.3977 14.26051096163364

Śledź METEOR 1-17 DEB w czasie rzeczywistym z AllMySat

Download on the App Store